When you browse on this site, cookies collect data to enhance your experience and personalize the content and advertising you see.
Visit our Privacy Policy to learn more. By continuing to use the site, you agree to this use of cookies and data.
  • Em Portugal
  • Lista de países
  • Para 7 dias
  • Temperatura da água
  • Mapa do tempo
  • Widgets de tempo
  • user-avatar
    Iniciar Sessão

    Previsão horária em Griboedovo

    Hoje, 2 Junho, Terça-feira

    Tempo Temperatura Precipitação Vento Pressão Humidade
    00:00 +9°C° 0 mm 5 m/s 745 mmHg 96%
    01:00 +9°C° 0 mm 5 m/s 745 mmHg 95%
    02:00 +9°C° 0 mm 5 m/s 746 mmHg 95%
    03:00 +8°C° 0 mm 5 m/s 746 mmHg 93%
    04:00 +9°C° 0 mm 5 m/s 746 mmHg 93%
    05:00 +9°C° 0 mm 5 m/s 746 mmHg 94%
    06:00 +9°C° 0 mm 5 m/s 746 mmHg 94%
    07:00 +9°C° 0.7 mm 5 m/s 746 mmHg 94%
    08:00 +10°C° 0.7 mm 5 m/s 746 mmHg 94%
    09:00 +10°C° 0.7 mm 5 m/s 746 mmHg 94%
    10:00 +10°C° 1.1 mm 5 m/s 746 mmHg 95%
    11:00 +10°C° 1.1 mm 5 m/s 746 mmHg 95%
    12:00 +10°C° 1.1 mm 6 m/s 746 mmHg 96%
    13:00 +12°C° 0.3 mm 5 m/s 746 mmHg 95%
    14:00 +12°C° 0.3 mm 5 m/s 746 mmHg 95%
    15:00 +12°C° 0.3 mm 5 m/s 746 mmHg 95%
    16:00 +13°C° 0 mm 5 m/s 746 mmHg 94%
    17:00 +13°C° 0 mm 5 m/s 746 mmHg 93%
    18:00 +14°C° 0 mm 5 m/s 746 mmHg 91%
    19:00 +13°C° 0 mm 5 m/s 746 mmHg 93%
    20:00 +13°C° 0 mm 5 m/s 746 mmHg 94%
    21:00 +12°C° 0 mm 4 m/s 746 mmHg 96%
    22:00 +12°C° 0 mm 4 m/s 746 mmHg 96%
    23:00 +12°C° 0 mm 4 m/s 746 mmHg 97%

    Amanhã, 3 Junho, Quarta-feira

    Tempo Temperatura Precipitação Vento Pressão Humidade
    00:00 +13°C° 0 mm 4 m/s 746 mmHg 97%
    01:00 +12°C° 0 mm 4 m/s 746 mmHg 97%
    02:00 +12°C° 0 mm 4 m/s 746 mmHg 97%
    03:00 +12°C° 0 mm 5 m/s 746 mmHg 96%
    04:00 +12°C° 0 mm 5 m/s 746 mmHg 95%
    05:00 +13°C° 0 mm 5 m/s 746 mmHg 94%
    06:00 +13°C° 0 mm 6 m/s 745 mmHg 93%
    07:00 +14°C° 0 mm 6 m/s 745 mmHg 90%
    08:00 +15°C° 0 mm 6 m/s 745 mmHg 87%
    09:00 +16°C° 0 mm 7 m/s 745 mmHg 84%
    10:00 +17°C° 0 mm 7 m/s 745 mmHg 82%
    11:00 +18°C° 0 mm 7 m/s 745 mmHg 80%
    12:00 +20°C° 0 mm 7 m/s 745 mmHg 78%
    13:00 +20°C° 0 mm 7 m/s 745 mmHg 79%
    14:00 +20°C° 0 mm 8 m/s 744 mmHg 80%
    15:00 +18°C° 0 mm 8 m/s 744 mmHg 82%
    16:00 +18°C° 0 mm 8 m/s 744 mmHg 82%
    17:00 +17°C° 0 mm 7 m/s 743 mmHg 83%
    18:00 +17°C° 0 mm 7 m/s 743 mmHg 84%
    19:00 +16°C° 0.2 mm 7 m/s 743 mmHg 85%
    20:00 +16°C° 0.2 mm 7 m/s 743 mmHg 86%
    21:00 +16°C° 0.2 mm 7 m/s 743 mmHg 87%
    22:00 +16°C° 1.1 mm 7 m/s 742 mmHg 89%
    23:00 +15°C° 1.1 mm 7 m/s 742 mmHg 92%

    Depois de amanhã, 4 Junho, Quinta-feira

    Tempo Temperatura Precipitação Vento Pressão Humidade
    00:00 +15°C° 1.1 mm 7 m/s 742 mmHg 94%
    01:00 +15°C° 1.2 mm 6 m/s 742 mmHg 94%
    02:00 +15°C° 1.2 mm 6 m/s 742 mmHg 94%
    03:00 +14°C° 1.2 mm 5 m/s 742 mmHg 94%
    04:00 +14°C° 1.1 mm 5 m/s 742 mmHg 94%
    05:00 +14°C° 1.1 mm 5 m/s 742 mmHg 95%
    06:00 +14°C° 1.1 mm 5 m/s 742 mmHg 95%
    07:00 +14°C° 0.9 mm 5 m/s 743 mmHg 94%
    08:00 +15°C° 0.9 mm 4 m/s 743 mmHg 93%
    09:00 +16°C° 0.9 mm 3 m/s 743 mmHg 92%
    10:00 +17°C° 1.3 mm 3 m/s 743 mmHg 91%
    11:00 +17°C° 1.3 mm 3 m/s 743 mmHg 90%
    12:00 +18°C° 1.3 mm 3 m/s 743 mmHg 90%
    13:00 +18°C° 1.4 mm 2 m/s 743 mmHg 91%
    14:00 +18°C° 1.4 mm 2 m/s 743 mmHg 92%
    15:00 +19°C° 1.4 mm 1 m/s 743 mmHg 93%
    16:00 +19°C° 2.8 mm 1 m/s 743 mmHg 94%
    17:00 +19°C° 2.8 mm 1 m/s 743 mmHg 94%
    18:00 +18°C° 2.8 mm 2 m/s 743 mmHg 95%
    19:00 +19°C° 1.1 mm 1 m/s 743 mmHg 95%
    20:00 +18°C° 1.1 mm 1 m/s 743 mmHg 95%
    21:00 +18°C° 1.1 mm 1 m/s 743 mmHg 94%
    22:00 +16°C° 0.9 mm 1 m/s 743 mmHg 95%
    23:00 +16°C° 0.9 mm 1 m/s 743 mmHg 96%

    5 Junho, Sexta-feira

    Tempo Temperatura Precipitação Vento Pressão Humidade
    00:00 +16°C° 0.9 mm 1 m/s 743 mmHg 97%
    01:00 +16°C° 0.4 mm 2 m/s 743 mmHg 97%
    02:00 +16°C° 0.4 mm 2 m/s 743 mmHg 98%
    03:00 +16°C° 0.4 mm 2 m/s 743 mmHg 98%
    04:00 +17°C° 0.2 mm 2 m/s 743 mmHg 98%
    05:00 +17°C° 0.2 mm 2 m/s 744 mmHg 97%
    06:00 +17°C° 0.2 mm 3 m/s 744 mmHg 97%
    07:00 +18°C° 0.3 mm 3 m/s 744 mmHg 95%
    08:00 +19°C° 0.3 mm 3 m/s 744 mmHg 92%
    09:00 +19°C° 0.3 mm 3 m/s 744 mmHg 90%
    10:00 +20°C° 0.9 mm 3 m/s 744 mmHg 88%
    11:00 +20°C° 0.9 mm 4 m/s 744 mmHg 86%
    12:00 +21°C° 0.9 mm 4 m/s 744 mmHg 84%
    13:00 +20°C° 1.1 mm 5 m/s 744 mmHg 85%
    14:00 +20°C° 1.1 mm 5 m/s 744 mmHg 86%
    15:00 +20°C° 1.1 mm 6 m/s 744 mmHg 87%
    16:00 +19°C° 0.4 mm 5 m/s 744 mmHg 88%
    17:00 +19°C° 0.4 mm 5 m/s 744 mmHg 89%
    18:00 +17°C° 0.4 mm 5 m/s 744 mmHg 90%
    19:00 +17°C° 0.7 mm 5 m/s 744 mmHg 92%
    20:00 +17°C° 0.7 mm 4 m/s 744 mmHg 93%
    21:00 +17°C° 0.7 mm 4 m/s 745 mmHg 95%
    22:00 +16°C° 0.2 mm 3 m/s 745 mmHg 96%
    23:00 +16°C° 0.2 mm 3 m/s 745 mmHg 96%

    6 Junho, Sábado

    Tempo Temperatura Precipitação Vento Pressão Humidade
    00:00 +15°C° 0.2 mm 2 m/s 745 mmHg 96%
    01:00 +15°C° 0 mm 2 m/s 745 mmHg 96%
    02:00 +14°C° 0 mm 2 m/s 745 mmHg 96%
    03:00 +14°C° 0 mm 2 m/s 745 mmHg 96%
    04:00 +14°C° 0 mm 2 m/s 745 mmHg 96%
    05:00 +15°C° 0 mm 1 m/s 746 mmHg 95%
    06:00 +15°C° 0 mm 1 m/s 746 mmHg 94%
    07:00 +16°C° 0 mm 1 m/s 746 mmHg 94%
    08:00 +16°C° 0 mm 2 m/s 746 mmHg 93%
    09:00 +17°C° 0 mm 2 m/s 747 mmHg 92%
    10:00 +17°C° 0 mm 2 m/s 747 mmHg 90%
    11:00 +18°C° 0 mm 2 m/s 747 mmHg 88%
    12:00 +18°C° 0 mm 2 m/s 747 mmHg 86%
    13:00 +18°C° 0 mm 2 m/s 747 mmHg 85%
    14:00 +18°C° 0 mm 2 m/s 747 mmHg 85%
    15:00 +19°C° 0 mm 3 m/s 747 mmHg 84%
    16:00 +18°C° 0 mm 3 m/s 748 mmHg 86%
    17:00 +17°C° 0 mm 3 m/s 748 mmHg 87%
    18:00 +17°C° 0 mm 4 m/s 748 mmHg 89%
    19:00 +16°C° 0 mm 3 m/s 748 mmHg 89%
    20:00 +14°C° 0 mm 3 m/s 748 mmHg 90%
    21:00 +13°C° 0 mm 3 m/s 749 mmHg 90%
    22:00 +12°C° 0 mm 3 m/s 749 mmHg 92%
    23:00 +13°C° 0 mm 2 m/s 749 mmHg 93%

    7 Junho, Domingo

    Tempo Temperatura Precipitação Vento Pressão Humidade
    00:00 +12°C° 0 mm 2 m/s 749 mmHg 95%
    01:00 +10°C° 0 mm 2 m/s 749 mmHg 95%
    02:00 +11°C° 0 mm 1 m/s 749 mmHg 96%
    03:00 +11°C° 0 mm 1 m/s 750 mmHg 96%
    04:00 +11°C° 0 mm 1 m/s 750 mmHg 95%
    05:00 +12°C° 0 mm 2 m/s 750 mmHg 94%
    06:00 +13°C° 0 mm 2 m/s 750 mmHg 92%
    07:00 +14°C° 0 mm 2 m/s 750 mmHg 89%
    08:00 +15°C° 0 mm 1 m/s 750 mmHg 85%
    09:00 +16°C° 0 mm 1 m/s 750 mmHg 81%
    10:00 +18°C° 0 mm 1 m/s 750 mmHg 81%
    11:00 +18°C° 0 mm 1 m/s 751 mmHg 80%
    12:00 +18°C° 0 mm 1 m/s 751 mmHg 80%
    13:00 +19°C° 0 mm 1 m/s 751 mmHg 80%
    14:00 +19°C° 0 mm 1 m/s 751 mmHg 79%
    15:00 +19°C° 0 mm 1 m/s 750 mmHg 79%
    16:00 +19°C° 0 mm 1 m/s 750 mmHg 81%
    17:00 +19°C° 0 mm 1 m/s 750 mmHg 83%
    18:00 +19°C° 0 mm 1 m/s 750 mmHg 84%
    19:00 +18°C° 0 mm 1 m/s 750 mmHg 85%
    20:00 +18°C° 0 mm 1 m/s 750 mmHg 86%
    21:00 +16°C° 0 mm 1 m/s 750 mmHg 86%
    22:00 +16°C° 0 mm 1 m/s 750 mmHg 86%
    23:00 +16°C° 0 mm 1 m/s 750 mmHg 87%
    Mostrar mais